When you browse on this site, cookies collect data to enhance your experience and personalize the content and advertising you see.
Visit our Privacy Policy to learn more. By continuing to use the site, you agree to this use of cookies and data.
  • In Lithuania
  • List of Countries
  • For 7 days
  • Water Temperature
  • Weather Map
  • Weather Widgets
  • user-avatar
    Login

    Hourly Weather Samroung

    Today, 3 June, Wednesday

    Time Temperature Precipitation Wind Pressure Humidity
    00:00 +28°C° 0 mm 1 mps 756 mmHg 88%
    01:00 +28°C° 0 mm 1 mps 756 mmHg 88%
    02:00 +28°C° 0 mm 1 mps 755 mmHg 88%
    03:00 +28°C° 0 mm 1 mps 754 mmHg 89%
    04:00 +26°C° 0 mm 0 mps 754 mmHg 90%
    05:00 +26°C° 0 mm 0 mps 754 mmHg 88%
    06:00 +27°C° 0 mm 0 mps 755 mmHg 87%
    07:00 +27°C° 0 mm 0 mps 755 mmHg 85%
    08:00 +29°C° 0 mm 0 mps 755 mmHg 78%
    09:00 +33°C° 0 mm 1 mps 755 mmHg 71%
    10:00 +34°C° 0 mm 1 mps 756 mmHg 64%
    11:00 +33°C° 0.7 mm 1 mps 755 mmHg 69%
    12:00 +34°C° 0.7 mm 2 mps 755 mmHg 73%
    13:00 +32°C° 0.7 mm 2 mps 755 mmHg 78%
    14:00 +32°C° 0.6 mm 2 mps 754 mmHg 78%
    15:00 +32°C° 0.6 mm 2 mps 753 mmHg 78%
    16:00 +32°C° 0.6 mm 2 mps 752 mmHg 78%
    17:00 +31°C° 0 mm 2 mps 753 mmHg 82%
    18:00 +30°C° 0 mm 2 mps 753 mmHg 85%
    19:00 +29°C° 0 mm 2 mps 754 mmHg 89%
    20:00 +29°C° 0 mm 2 mps 754 mmHg 90%
    21:00 +29°C° 0 mm 2 mps 755 mmHg 90%
    22:00 +28°C° 0 mm 2 mps 755 mmHg 91%
    23:00 +28°C° 0 mm 1 mps 755 mmHg 91%

    Tomorrow, 4 June, Thursday

    Time Temperature Precipitation Wind Pressure Humidity
    00:00 +28°C° 0 mm 1 mps 755 mmHg 92%
    01:00 +28°C° 0 mm 1 mps 754 mmHg 93%
    02:00 +28°C° 0 mm 1 mps 754 mmHg 93%
    03:00 +28°C° 0 mm 1 mps 754 mmHg 93%
    04:00 +28°C° 0 mm 1 mps 754 mmHg 93%
    05:00 +28°C° 0.5 mm 1 mps 754 mmHg 92%
    06:00 +29°C° 0.5 mm 1 mps 754 mmHg 91%
    07:00 +29°C° 0.5 mm 1 mps 755 mmHg 89%
    08:00 +31°C° 0.1 mm 1 mps 755 mmHg 81%
    09:00 +32°C° 0.1 mm 2 mps 755 mmHg 73%
    10:00 +35°C° 0.1 mm 2 mps 755 mmHg 64%
    11:00 +35°C° 0.6 mm 2 mps 755 mmHg 66%
    12:00 +35°C° 0.6 mm 3 mps 755 mmHg 67%
    13:00 +34°C° 0.6 mm 3 mps 754 mmHg 69%
    14:00 +34°C° 0.1 mm 3 mps 754 mmHg 68%
    15:00 +34°C° 0.1 mm 3 mps 753 mmHg 68%
    16:00 +34°C° 0.1 mm 3 mps 753 mmHg 68%
    17:00 +32°C° 0 mm 2 mps 753 mmHg 73%
    18:00 +30°C° 0 mm 2 mps 753 mmHg 79%
    19:00 +29°C° 0 mm 2 mps 754 mmHg 85%
    20:00 +29°C° 0 mm 2 mps 754 mmHg 86%
    21:00 +29°C° 0 mm 1 mps 755 mmHg 87%
    22:00 +28°C° 0 mm 1 mps 755 mmHg 88%
    23:00 +28°C° 0 mm 1 mps 755 mmHg 88%

    Day after tomorrow, 5 June, Friday

    Time Temperature Precipitation Wind Pressure Humidity
    00:00 +28°C° 0 mm 1 mps 755 mmHg 87%
    01:00 +28°C° 0 mm 1 mps 754 mmHg 87%
    02:00 +28°C° 0.3 mm 1 mps 754 mmHg 87%
    03:00 +28°C° 0.3 mm 1 mps 754 mmHg 86%
    04:00 +27°C° 0.3 mm 1 mps 753 mmHg 86%
    05:00 +28°C° 0.1 mm 1 mps 754 mmHg 85%
    06:00 +29°C° 0.1 mm 1 mps 754 mmHg 83%
    07:00 +29°C° 0.1 mm 1 mps 754 mmHg 82%
    08:00 +31°C° 0 mm 2 mps 755 mmHg 75%
    09:00 +32°C° 0 mm 2 mps 755 mmHg 69%
    10:00 +35°C° 0 mm 3 mps 755 mmHg 62%
    11:00 +35°C° 0.6 mm 3 mps 755 mmHg 66%
    12:00 +34°C° 0.6 mm 3 mps 754 mmHg 69%
    13:00 +34°C° 0.6 mm 3 mps 754 mmHg 73%
    14:00 +34°C° 0.1 mm 3 mps 754 mmHg 70%
    15:00 +34°C° 0.1 mm 3 mps 753 mmHg 67%
    16:00 +34°C° 0.1 mm 3 mps 753 mmHg 65%
    17:00 +32°C° 0 mm 2 mps 753 mmHg 71%
    18:00 +31°C° 0 mm 2 mps 753 mmHg 78%
    19:00 +29°C° 0 mm 2 mps 754 mmHg 84%
    20:00 +29°C° 0 mm 2 mps 754 mmHg 85%
    21:00 +29°C° 0 mm 2 mps 754 mmHg 86%
    22:00 +29°C° 0 mm 2 mps 755 mmHg 87%
    23:00 +28°C° 0 mm 2 mps 755 mmHg 88%

    6 June, Saturday

    Time Temperature Precipitation Wind Pressure Humidity
    00:00 +28°C° 0 mm 2 mps 754 mmHg 90%
    01:00 +28°C° 0 mm 2 mps 754 mmHg 91%
    02:00 +28°C° 0 mm 2 mps 754 mmHg 91%
    03:00 +28°C° 0 mm 2 mps 753 mmHg 92%
    04:00 +28°C° 0 mm 1 mps 753 mmHg 92%
    05:00 +28°C° 0 mm 1 mps 753 mmHg 90%
    06:00 +29°C° 0 mm 1 mps 754 mmHg 88%
    07:00 +29°C° 0 mm 1 mps 754 mmHg 86%
    08:00 +31°C° 0 mm 2 mps 754 mmHg 78%
    09:00 +32°C° 0 mm 2 mps 755 mmHg 71%
    10:00 +35°C° 0 mm 2 mps 755 mmHg 63%
    11:00 +34°C° 0.8 mm 3 mps 755 mmHg 68%
    12:00 +34°C° 0.8 mm 3 mps 754 mmHg 72%
    13:00 +33°C° 0.8 mm 4 mps 754 mmHg 76%
    14:00 +33°C° 0.8 mm 4 mps 753 mmHg 77%
    15:00 +33°C° 0.8 mm 3 mps 753 mmHg 78%
    16:00 +31°C° 0.8 mm 3 mps 752 mmHg 79%
    17:00 +30°C° 0.3 mm 3 mps 753 mmHg 83%
    18:00 +29°C° 0.3 mm 2 mps 753 mmHg 87%
    19:00 +28°C° 0.3 mm 2 mps 753 mmHg 91%
    20:00 +28°C° 0 mm 2 mps 754 mmHg 91%
    21:00 +28°C° 0 mm 1 mps 755 mmHg 90%
    22:00 +28°C° 0 mm 1 mps 755 mmHg 90%
    23:00 +28°C° 0.1 mm 1 mps 755 mmHg 90%

    7 June, Sunday

    Time Temperature Precipitation Wind Pressure Humidity
    00:00 +28°C° 0.1 mm 1 mps 754 mmHg 91%
    01:00 +27°C° 0.1 mm 1 mps 754 mmHg 91%
    02:00 +27°C° 0 mm 1 mps 754 mmHg 91%
    03:00 +27°C° 0 mm 1 mps 753 mmHg 91%
    04:00 +27°C° 0 mm 1 mps 753 mmHg 91%
    05:00 +28°C° 0.1 mm 1 mps 753 mmHg 90%
    06:00 +28°C° 0.1 mm 1 mps 754 mmHg 89%
    07:00 +29°C° 0.1 mm 1 mps 754 mmHg 88%
    08:00 +30°C° 0.4 mm 2 mps 754 mmHg 83%
    09:00 +31°C° 0.4 mm 2 mps 755 mmHg 78%
    10:00 +33°C° 0.4 mm 3 mps 755 mmHg 72%
    11:00 +33°C° 0.3 mm 3 mps 754 mmHg 71%
    12:00 +34°C° 0.3 mm 3 mps 754 mmHg 70%
    13:00 +34°C° 0.3 mm 4 mps 753 mmHg 69%
    14:00 +34°C° 0.1 mm 4 mps 753 mmHg 69%
    15:00 +34°C° 0.1 mm 4 mps 752 mmHg 68%
    16:00 +33°C° 0.1 mm 3 mps 752 mmHg 67%
    17:00 +31°C° 0 mm 3 mps 752 mmHg 74%
    18:00 +30°C° 0 mm 3 mps 752 mmHg 80%
    19:00 +29°C° 0 mm 2 mps 753 mmHg 86%
    20:00 +29°C° 0 mm 2 mps 753 mmHg 87%
    21:00 +28°C° 0 mm 2 mps 754 mmHg 87%
    22:00 +28°C° 0 mm 2 mps 754 mmHg 87%
    23:00 +28°C° 0.1 mm 2 mps 754 mmHg 89%

    8 June, Monday

    Time Temperature Precipitation Wind Pressure Humidity
    00:00 +28°C° 0.1 mm 2 mps 753 mmHg 90%
    01:00 +28°C° 0.1 mm 2 mps 753 mmHg 91%
    02:00 +28°C° 0.7 mm 2 mps 753 mmHg 92%
    03:00 +28°C° 0.7 mm 2 mps 753 mmHg 92%
    04:00 +28°C° 0.7 mm 2 mps 752 mmHg 93%
    05:00 +28°C° 0.3 mm 1 mps 753 mmHg 92%
    06:00 +28°C° 0.3 mm 1 mps 753 mmHg 91%
    07:00 +28°C° 0.3 mm 1 mps 754 mmHg 90%
    08:00 +29°C° 1 mm 1 mps 754 mmHg 87%
    09:00 +30°C° 1 mm 2 mps 754 mmHg 84%
    10:00 +31°C° 1 mm 2 mps 755 mmHg 81%
    11:00 +31°C° 0.2 mm 2 mps 754 mmHg 76%
    12:00 +32°C° 0.2 mm 2 mps 754 mmHg 71%
    13:00 +32°C° 0.2 mm 2 mps 753 mmHg 66%
    14:00 +32°C° 0 mm 2 mps 753 mmHg 70%
    15:00 +31°C° 0 mm 2 mps 752 mmHg 74%
    16:00 +30°C° 0 mm 2 mps 752 mmHg 77%
    17:00 +30°C° 0 mm 2 mps 752 mmHg 81%
    18:00 +29°C° 0 mm 2 mps 753 mmHg 84%
    19:00 +28°C° 0 mm 2 mps 753 mmHg 87%
    20:00 +28°C° 0 mm 1 mps 753 mmHg 88%
    21:00 +28°C° 0 mm 1 mps 754 mmHg 90%
    22:00 +28°C° 0 mm 1 mps 754 mmHg 91%
    23:00 +28°C° 0 mm 1 mps 754 mmHg 91%
    Show more